Weather History for Caldwell, ID

Change the Weather History Date:

Wednesday, May 7, 2014

  Actual Average (KBOI) Record (KBOI)
Temperature  
Mean Temperature 55 °F 56 °F  
Max Temperature 66 °F 69 °F 93 °F (1987)
Min Temperature 44 °F 44 °F 26 °F (1981)
Degree Days  
Heating Degree Days 10 9  
Month to date heating degree days 71  
Since 1 July heating degree days 5295  
Cooling Degree Days 0 1  
Month to date cooling degree days 6  
Year to date cooling degree days 9  
Growing Degree Days 5 (Base 50)    
Moisture  
Dew Point 30 °F    
Average Humidity 41    
Maximum Humidity 58    
Minimum Humidity 24    
Precipitation  
Precipitation 0.00 in 0.04 in 0.85 in (1883)
Month to date precipitation 0.32  
Year to date precipitation 5.17  
Snow  
Snow 0.00 in 0.00 in T in (1953)
Month to date snowfall 0.0  
Since 1 July snowfall 19.2  
Snow Depth -    
Sea Level Pressure  
Sea Level Pressure 29.83 in    
Wind  
Wind Speed 15 mph (NW)    
Max Wind Speed 23 mph    
Max Gust Speed 31 mph    
Visibility 10 miles    
Events      
T = Trace of Precipitation, MM = Missing Value Source: NWS Daily Summary

Daily Weather History Graph

Daily Weather History Graph

Search for Another Location

Airport:

Trip Planner

Search our weather history database for the weather conditions in past years. The results will help you decide how hot, cold, wet, or windy it might be!

Date:

Astronomy

May. 07, 2014 Rise Set
Actual Time 6:30 AM MDT 8:56 PM MDT
Civil Twilight 5:58 AM MDT 9:28 PM MDT
Nautical Twilight 5:18 AM MDT 10:08 PM MDT
Astronomical Twilight 4:33 AM MDT 10:53 PM MDT
Moon 1:52 PM MDT (5/7) 2:45 AM MDT (5/7)
Length of Visible Light 15h 29m
Length of Day
14h 25m
First Quarter, 56% of the Moon is Illuminated
May 7
First Quarter
May 14
Full
May 21
Last Quarter
May 28
New
Jun 5
First Quarter

Hourly Weather History & Observations

Time (MDT) Temp. Windchill Dew Point Humidity Pressure Visibility Wind Dir Wind Speed Gust Speed Precip Events Conditions
12:15 AM 46.4 °F 41.1 °F 30.2 °F 53% 29.82 in 10.0 mi NW 11.5 mph - N/A   Clear
12:35 AM 46.4 °F 41.1 °F 30.2 °F 53% 29.81 in 10.0 mi NW 11.5 mph - N/A   Clear
12:55 AM 46.4 °F 40.7 °F 30.2 °F 53% 29.81 in 10.0 mi NW 12.7 mph - N/A   Clear
1:15 AM 46.4 °F 39.8 °F 30.2 °F 53% 29.81 in 10.0 mi NW 16.1 mph - N/A   Clear
1:35 AM 46.4 °F 40.4 °F 30.2 °F 53% 29.81 in 10.0 mi WNW 13.8 mph - N/A   Clear
1:55 AM 46.4 °F 40.1 °F 30.2 °F 53% 29.81 in 10.0 mi WNW 15.0 mph - N/A   Clear
2:15 AM 46.4 °F 40.1 °F 30.2 °F 53% 29.81 in 10.0 mi WNW 15.0 mph - N/A   Clear
2:35 AM 46.4 °F 40.4 °F 30.2 °F 53% 29.81 in 10.0 mi WNW 13.8 mph 20.7 mph N/A   Clear
2:55 AM 46.4 °F 40.1 °F 30.2 °F 53% 29.81 in 10.0 mi WNW 15.0 mph - N/A   Clear
3:15 AM 46.4 °F 39.8 °F 30.2 °F 53% 29.81 in 10.0 mi WNW 16.1 mph - N/A   Clear
3:35 AM 46.4 °F 39.5 °F 30.2 °F 53% 29.81 in 10.0 mi WNW 17.3 mph - N/A   Clear
3:55 AM 46.4 °F 39.5 °F 30.2 °F 53% 29.81 in 10.0 mi NW 17.3 mph 26.5 mph N/A   Clear
4:15 AM 46.4 °F 39.5 °F 30.2 °F 53% 29.81 in 10.0 mi WNW 17.3 mph 23.0 mph N/A   Clear
4:35 AM 46.4 °F 39.5 °F 30.2 °F 53% 29.81 in 10.0 mi WNW 17.3 mph 23.0 mph N/A   Clear
4:55 AM 46.4 °F 39.2 °F 28.4 °F 50% 29.81 in 10.0 mi WNW 18.4 mph 25.3 mph N/A   Clear
5:35 AM 46.4 °F 39.0 °F 30.2 °F 53% 29.81 in 10.0 mi NW 19.6 mph 27.6 mph N/A   Clear
5:55 AM 44.6 °F 36.9 °F 30.2 °F 57% 29.81 in 10.0 mi NW 18.4 mph - N/A   Clear
6:15 AM 44.6 °F 36.1 °F 30.2 °F 57% 29.82 in 10.0 mi WNW 21.9 mph 27.6 mph N/A   Clear
6:35 AM 44.6 °F 36.9 °F 30.2 °F 57% 29.82 in 10.0 mi NW 18.4 mph 24.2 mph N/A   Clear
6:55 AM 44.6 °F 37.2 °F 30.2 °F 57% 29.83 in 10.0 mi NW 17.3 mph - N/A   Clear
7:15 AM 44.6 °F 37.2 °F 30.2 °F 57% 29.83 in 10.0 mi NW 17.3 mph - N/A   Clear
7:35 AM 44.6 °F 37.8 °F 30.2 °F 57% 29.83 in 10.0 mi NW 15.0 mph 21.9 mph N/A   Clear
7:55 AM 46.4 °F 40.7 °F 32.0 °F 57% 29.84 in 10.0 mi NW 12.7 mph 19.6 mph N/A   Clear
8:15 AM 46.4 °F 40.1 °F 32.0 °F 57% 29.84 in 10.0 mi NW 15.0 mph 19.6 mph N/A   Clear
8:35 AM 48.2 °F - 33.8 °F 58% 29.84 in 10.0 mi NW 17.3 mph - N/A   Clear
8:55 AM 50.0 °F - 32.0 °F 50% 29.84 in 10.0 mi NW 21.9 mph 25.3 mph N/A   Clear
9:15 AM 51.8 °F - 33.8 °F 50% 29.85 in 10.0 mi NW 19.6 mph 23.0 mph N/A   Clear
9:35 AM 53.6 °F - 33.8 °F 47% 29.85 in 10.0 mi NW 15.0 mph 20.7 mph N/A   Clear
9:55 AM 55.4 °F - 33.8 °F 44% 29.84 in 10.0 mi NW 19.6 mph 24.2 mph N/A   Clear
10:15 AM 55.4 °F - 33.8 °F 44% 29.84 in 10.0 mi NW 19.6 mph 25.3 mph N/A   Clear
10:35 AM 57.2 °F - 33.8 °F 41% 29.84 in 10.0 mi NNW 19.6 mph 26.5 mph N/A   Clear
11:15 AM 59.0 °F - 33.8 °F 39% 29.84 in 10.0 mi NNW 19.6 mph 26.5 mph N/A   Clear
11:55 AM 60.8 °F - 32.0 °F 34% 29.83 in 10.0 mi NNW 18.4 mph 25.3 mph N/A   Clear
12:35 PM 62.6 °F - 32.0 °F 32% 29.83 in 10.0 mi NW 18.4 mph 28.8 mph N/A   Clear
12:55 PM 62.6 °F - 32.0 °F 32% 29.83 in 10.0 mi NNW 21.9 mph 28.8 mph N/A   Clear
1:15 PM 64.4 °F - 32.0 °F 30% 29.82 in 10.0 mi NNW 23.0 mph 28.8 mph N/A   Scattered Clouds
1:35 PM 64.4 °F - 30.2 °F 28% 29.82 in 10.0 mi NNW 19.6 mph 27.6 mph N/A   Scattered Clouds
1:55 PM 64.4 °F - 32.0 °F 30% 29.82 in 10.0 mi NNW 19.6 mph 27.6 mph N/A   Mostly Cloudy
2:15 PM 64.4 °F - 30.2 °F 28% 29.82 in 10.0 mi NNW 17.3 mph 31.1 mph N/A   Scattered Clouds
2:35 PM 66.2 °F - 30.2 °F 26% 29.82 in 10.0 mi NNW 19.6 mph 26.5 mph N/A   Scattered Clouds
2:55 PM 64.4 °F - 30.2 °F 28% 29.81 in 10.0 mi North 23.0 mph 28.8 mph N/A   Scattered Clouds
3:15 PM 66.2 °F - 30.2 °F 26% 29.82 in 10.0 mi NNW 16.1 mph 25.3 mph N/A   Scattered Clouds
3:35 PM 66.2 °F - 28.4 °F 24% 29.82 in 10.0 mi NNW 20.7 mph 26.5 mph N/A   Partly Cloudy
3:55 PM 64.4 °F - 28.4 °F 26% 29.81 in 10.0 mi NW 18.4 mph 24.2 mph N/A   Clear
4:15 PM 66.2 °F - 28.4 °F 24% 29.81 in 10.0 mi NW 20.7 mph 24.2 mph N/A   Scattered Clouds
4:35 PM 66.2 °F - 28.4 °F 24% 29.82 in 9.0 mi NNW 16.1 mph 25.3 mph N/A   Scattered Clouds
4:55 PM 66.2 °F - 30.2 °F 26% 29.82 in 10.0 mi NNW 21.9 mph 25.3 mph N/A   Scattered Clouds
5:15 PM 66.2 °F - 28.4 °F 24% 29.82 in 10.0 mi North 16.1 mph 25.3 mph N/A   Scattered Clouds
5:35 PM 64.4 °F - 30.2 °F 28% 29.82 in 10.0 mi NNW 19.6 mph - N/A   Scattered Clouds
5:55 PM 66.2 °F - 28.4 °F 24% 29.82 in 10.0 mi NNW 17.3 mph 21.9 mph N/A   Partly Cloudy
6:15 PM 64.4 °F - 30.2 °F 28% 29.83 in 10.0 mi NNW 19.6 mph 23.0 mph N/A   Clear
6:35 PM 64.4 °F - 28.4 °F 26% 29.83 in 10.0 mi NNW 15.0 mph 21.9 mph N/A   Clear
6:55 PM 64.4 °F - 30.2 °F 28% 29.83 in 10.0 mi NW 17.3 mph 20.7 mph N/A   Clear
7:15 PM 64.4 °F - 30.2 °F 28% 29.83 in 10.0 mi NNW 17.3 mph 23.0 mph N/A   Clear
7:35 PM 62.6 °F - 28.4 °F 27% 29.83 in 10.0 mi NNW 15.0 mph - N/A   Clear
7:55 PM 62.6 °F - 30.2 °F 30% 29.83 in 10.0 mi NNW 13.8 mph - N/A   Clear
8:15 PM 60.8 °F - 30.2 °F 31% 29.84 in 10.0 mi NNW 12.7 mph - N/A   Clear
8:35 PM 60.8 °F - 30.2 °F 31% 29.84 in 10.0 mi NNW 10.4 mph 17.3 mph N/A   Clear
8:55 PM 57.2 °F - 30.2 °F 36% 29.85 in 10.0 mi NNW 8.1 mph - N/A   Clear
9:15 PM 55.4 °F - 30.2 °F 38% 29.85 in 10.0 mi NNW 9.2 mph - N/A   Clear
9:35 PM 53.6 °F - 30.2 °F 41% 29.86 in 10.0 mi North 8.1 mph - N/A   Clear
9:55 PM 53.6 °F - 30.2 °F 41% 29.87 in 10.0 mi North 8.1 mph - N/A   Clear
10:15 PM 51.8 °F - 28.4 °F 41% 29.88 in 10.0 mi North 8.1 mph - N/A   Clear
10:35 PM 50.0 °F - 28.4 °F 43% 29.88 in 10.0 mi North 9.2 mph - N/A   Clear
10:55 PM 51.8 °F - 28.4 °F 41% 29.88 in 10.0 mi North 9.2 mph - N/A   Clear
11:15 PM 48.2 °F - 28.4 °F 46% 29.89 in 10.0 mi North 6.9 mph - N/A   Clear
11:35 PM 48.2 °F - 26.6 °F 43% 29.89 in 10.0 mi NNW 6.9 mph - N/A   Clear
11:55 PM 46.4 °F 42.9 °F 28.4 °F 50% 29.89 in 10.0 mi West 6.9 mph - N/A   Clear